Regional Weather Roundup
Issued by NWS

Home | Current Version | Previous Version | Text Only | Print | Product List | Glossary Off
Versions: 1 2 3 4 5 6 7 8 9 10 11 12 13 14 15 16 17 18 19 20 21 22 23 24 25 26 27 28 29 30 31 32 33 34 35 36 37 38 39 40 41 42 43 44 45 46 47 48 49 50

000
ASUS43 KDMX 271504
RWRIA

WEATHER ROUNDUP FOR IOWA
NATIONAL WEATHER SERVICE DES MOINES IA
  ISSUED BY NWS QUAD CITIES IA IL
900 AM CST FRI FEB 27 2015

NOTE: "FAIR" INDICATES FEW OR NO CLOUDS BELOW 12,000 FEET WITH NO
SIGNIFICANT WEATHER AND/OR OBSTRUCTIONS TO VISIBILITY.

* - THESE STATIONS ARE NOT NWS STATIONS...THUS NOT UNDER NWS
QUALITY CONTROL.  THEY ALSO DO NOT REPORT WEATHER SUCH
AS PRECIPITATION OR FOG.

IAZ001>003-012>014-020>022-031>034-043>046-271600-
   NORTHWEST IOWA

CITY           SKY/WX    TMP DP  RH WIND       PRES   REMARKS
CARROLL *      SUNNY     -4 -11  71 NW5       30.60R WCI -15
CHEROKEE *     SUNNY    -12 -15  84 CALM      30.59S
DENNISON *     MOSUNNY   -8 -13  77 CALM      30.59R
LE MARS *      SUNNY     -6  -9  84 CALM      30.60S
ORANGE CITY *  SUNNY     -2  -8  78 CALM      30.55R
SHELDON *      SUNNY     -6 -11  77 CALM      30.55S
SIOUX CITY     SUNNY      1  -5  75 SW3       30.62R
SPENCER        SUNNY     -6 -12  75 SW5       30.56R WCI -17
STORM LAKE *   SUNNY     -6 -11  77 SW7       30.56R WCI -20
$$

IAZ055>058-069>071-079>083-090>094-271600-
   SOUTHWEST IOWA

CITY           SKY/WX    TMP DP  RH WIND       PRES   REMARKS
ATLANTIC *     MOSUNNY   -2  -8  78 CALM      30.63R
AUDUBON *      SUNNY     -4  -9  77 CALM      30.60R HAZE
CLARINDA *     SUNNY      3  -2  78 N6        30.66R WCI  -8
COUNCIL BLFS * SUNNY      1  -4  78 CALM      30.60S
CRESTON *      SUNNY      0  -6  78 NW5       30.61R WCI -10
HARLAN *       SUNNY     -4  -8  84 CALM      30.65R
LAMONI         SUNNY      2  -6  69 N7        30.62R WCI -11
RED OAK *      SUNNY      1  -2  85 NE3       30.64R
SHENANDOAH *   SUNNY      3   0  85 NE6       30.65S WCI  -8
$$

IAZ047>049-059>061-072>074-084-271600-
   CENTRAL IOWA

CITY           SKY/WX    TMP DP  RH WIND       PRES   REMARKS
AMES           SUNNY     -2 -10  69 N5        30.62R WCI -12
ANKENY *       SUNNY     -2  -9  71 W5        30.65R WCI -12
BOONE *        SUNNY     -2  -9  71 NW6       30.59R WCI -14
CHARITON *     SUNNY     -2  -8  78 NW3       30.64R
DES MOINES     MOSUNNY    0  -8  69 NW5       30.64R WCI -10
GRINNELL *     SUNNY     -8 -13  82 NW5       30.62R WCI -20
KNOXVILLE *    SUNNY     -4  -9  77 W6        30.64R WCI -16
MARSHALLTOWN   SUNNY    -11 -15  82 W5        30.61R WCI -23
NEWTON *       SUNNY     -4 -11  71 NW3       30.63R
PELLA *        SUNNY     -1  -6  81 NW5       30.66R WCI -12
PERRY *          N/A     -3  -7  85 W6        30.63R WCI -16
$$

IAZ004>006-015-016-023>025-035-036-271600-
   NORTH CENTRAL IOWA

CITY           SKY/WX    TMP DP  RH WIND       PRES   REMARKS
ALGONA *       SUNNY     -4  -9  77 NW7       30.58R WCI -18
CLARION *      SUNNY    -13 -18  77 CALM      30.59R
ESTHERVILLE    SUNNY     -5 -10  79 W7        30.55R WCI -19
FORT DODGE *   SUNNY     -6 -11  77 CALM      30.60R
MASON CITY     SUNNY     -9 -13  83 W7        30.58R WCI -24
FOREST CITY *  FAIR      -8 -15  71 CALM      30.56S
WEBSTER CITY * SUNNY     -8 -15  71 W3        30.59R
IOWA FALLS *   CLOUDY   -11 -16  78 W3        30.60R HAZE
$$

IAZ007>011-017>019-026>030-037>042-050>054-066-271600-
   NORTHEAST IOWA

CITY           SKY/WX    TMP DP  RH WIND       PRES   REMARKS
CEDAR RAPIDS   MOSUNNY  -12 -16  82 NW5       30.61R WCI -24
CLINTON *      SUNNY    -15 -17  91 CALM      30.64R
DECORAH *      SUNNY     -6 -13  71 VRB3      30.55R
DUBUQUE        SUNNY    -10 -12  91 CALM      30.57R
MONTICELLO *   SUNNY    -11 -18  70 CALM      30.62R
OELWEIN *      MOSUNNY  -15 -22  70 CALM      30.59R
WATERLOO       FLURRIES -10 -15  78 NW5       30.61R WCI -22
$$

IAZ064-065-067-068-078-271600-
   EAST CENTRAL IOWA

CITY           SKY/WX    TMP DP  RH WIND       PRES   REMARKS
DAVENPORT      SUNNY    -11 -17  75 W6        30.63R WCI -25
IOWA CITY      SUNNY     -5 -11  75 NW7       30.67R WCI -19
MT. PLEASANT * SUNNY     -3 -10  72 W3        30.66R
MUSCATINE *    SUNNY     -6 -11  77 CALM      30.68R
QUAD CITIES    SUNNY     -4 -10  75 W6        30.64R WCI -16
$$

IAZ062-063-075>077-085>089-095>099-271600-
   SOUTHEAST IOWA

CITY           SKY/WX    TMP DP  RH WIND       PRES   REMARKS
BURLINGTON     SUNNY     -5 -10  79 W5        30.66R WCI -16
FAIRFIELD *    SUNNY     -6 -13  71 W7        30.66R WCI -20
FORT MADISON * SUNNY     -2  -9  71 W5        30.67R WCI -12
KEOKUK *       SUNNY     -2  -8  78 W6        30.67R WCI -14
OSKALOOSA *    FAIR      -4  -8  83 NW6       30.66R WCI -16
CENTERVILLE *  FAIR       0  -4  85 W3        30.65R
OTTUMWA        SUNNY     -2  -7  79 W6        30.65R WCI -14
WASHINGTON *   SUNNY     -6  -8  92 NW8       30.66R WCI -21
$$

ABBREVIATIONS USED IN REMARKS
   TC - TEMPERATURES IN CELSIUS
  WCI - WIND CHILL INDEX
   HX - HEAT INDEX
  VSB - VISIBILITY
$$


USA.gov is the U.S. government's official web portal to all federal, state and local government web resources and services.